Voltar ao catálogo

STARLINK-32334

AtivoComunicaçõesVLEO
NORAD 62023·PAYLOAD·🇺🇸 United States

Lançado Nov 18, 2024 de Vandenberg Space Force Base

Loading…

Próximas Passagens (próximas 24 horas)

TLE

AtualizadoSource: CelesTrak SupGP

Época: Sep 15, 2026, 03:08 UTC

1 62023C 24213R   26258.13104167  .00063993  00000+0  18904-2 0  2582
2 62023  53.1610   6.8932 0001157  91.4568  43.8929 15.34363152    15

Acompanhe STARLINK-32334 em tempo real com AllMySat

Download on the App Store